587  
ASUS41 KBTV 310730  
RWRBTV  
VERMONT REGIONAL WEATHER ROUNDUP  
NATIONAL WEATHER SERVICE BURLINGTON VT  
300 AM EDT SUN MAY 31 2020  
 
NOTE: "FAIR" INDICATES FEW OR NO CLOUDS BELOW 12,000 FEET WITH NO  
SIGNIFICANT WEATHER AND/OR S TO VISIBILITY
.  
 
* THESE REPORTS ARE NOT UNDER NWS QUALITY CONTROL AND/OR DO NOT  
REPORT WEATHER SUCH AS PRECIPITATION AND FOG.
 
 
VTZ001>019-310800-  
_____VERMONT_____  
 
 
CITY SKY/WX TMP DP RH WIND PRES REMARKS
 
BURLINGTON CLOUDY 49 39 68 NW13 30.00R  
MONTPELIER CLOUDY 45 41 86 NW15G25 29.99R  
MORRISVILLE CLOUDY 47 41 80 NW7 29.97R  
ST. JOHNSBURY* N/A 50 43 77 MISG 29.91R  
LYNDONVILLE* CLOUDY 46 43 90 SW8G16 29.93R  
MIDDLEBURY* CLOUDY 47 40 74 N13G20 29.99R  
RUTLAND* LGT RAIN 50 45 81 N16 29.96R  
SPRINGFIELD PTCLDY 57 42 57 NW13G24 29.90R  
HIGHGATE* CLOUDY 50 44 81 NW6 29.99R  
NEWPORT* CLOUDY 43 43 100 NW5 29.95R  
BENNINGTON CLEAR 52 45 77 W12G17 29.96R  
ISLAND POND* N/A 46 N/A N/A W14 N/A  
GALLUP MILLS* N/A 46 N/A N/A MISG N/A  
LAKE EDEN* N/A 45 N/A N/A SW3 N/A  
MT. MANSFIELD* N/A 37 N/A N/A W39G51 N/A WCI 23  
 
_____LAKE CHAMPLAIN_____  
 
 
CITY SKY/WX TMP DP RH WIND PRES REMARKS
 
BURTON ISLAND* N/A 50 45 81 W16G29 N/A  
COLCHESTER RF* N/A 50 41 71 NW22 N/A  
 

 
 
NYZ007-026>031-035-052-083-087-310800-  
_____NORTHERN NEW YORK_____  
 
 
CITY SKY/WX TMP DP RH WIND PRES REMARKS
 
PLATTSBURGH CLOUDY 48 39 71 VRB7 30.00S  
SARANAC LAKE CLOUDY 40 37 89 NW5 30.00R  
MASSENA CLEAR 43 37 79 NW8 30.08R  
OGDENSBURG* FAIR 41 37 87 NW6 30.06S  
POTSDAM* CLEAR 43 39 87 NW3 30.07R  
WATERTOWN CLEAR 43 37 79 N5 30.09S  
FT DRUM CLEAR 40 37 89 N3 30.08R  
ALBANY PTCLDY 54 43 66 W7 29.99R  
GLENS FALLS MOCLDY 53 40 61 NW12 29.98R  
 

 
NHZ002-005-011-310800-  
_____NEW HAMPSHIRE_____  
 
 
CITY SKY/WX TMP DP RH WIND PRES REMARKS
 
LEBANON MOCLDY 57 46 66 NW10G20 29.89R  
KEENE MOCLDY 56 50 80 CALM 29.89S  
MT WASHINGTON LGT RAIN 34 34 100 W51G70 N/A VSB 0 WCI 17  
PLYMOUTH CLOUDY 55 46 71 W13G20 29.88R  
WHITEFIELD CLOUDY 51 45 79 W12G21 29.89R  
 

 
 
_____REGIONAL QUEBEC LOCATIONS_____  
 
 
CITY SKY/WX TMP DP RH WIND PRES REMARKS
 
MONTREAL PTCLDY 46 37 71 NW10 30.01R  
QUEBEC CITY MOCLDY 45 37 76 W6 29.85R  
SHERBROOKE MOCLDY 43 39 87 NW21G28 29.90R  
 
_____REGIONAL ONTARIO LOCATIONS_____  
 
 
CITY SKY/WX TMP DP RH WIND PRES REMARKS
 
OTTAWA PTCLDY 41 37 87 W3 30.07S  
 
______KEY______  
VSB - VISIBILITY IN MILES  
WCI - WIND CHILL INDEX  
HX - HEAT INDEX  

 
NNNN  
 
 
CLICK HERE TO GO TO PREVIOUS BULLETINS.

The Nexlab VT Page
The Nexlab NY Page Main Text Page